Location: Alsip
(41.6689°N, 87.7387°W)
Time: 13:49:16
(UTC+00:00)

Meteor 2-20 - Pass Details

Date: 14 July 2020
Orbit: 940 x 958 km, 82.5° (Epoch: 04 August)

Event Time Altitude Azimuth Distance (km) Brightness Sun altitude
Rises 06:01:24 0° 350° (N) 3,641 8.7 -26.7°
Reaches altitude 10° 06:03:54 10° 349° (N) 2,694 7.8 -26.7°
Maximum altitude 06:10:04 79° 265° (W) 980 4.4 -26.7°
Enters shadow 06:10:48 68° 206° (SSW) 1,026 4.3 -26.7°
